{"data":{"norad_id":67641,"intl_designator":"2026-020AA","name":"STARLINK-36514","alt_names":[],"object_type":"PAYLOAD","status":"ACTIVE","operator":null,"country":"US","launch_date":"2026-01-30","launch_site_code":"AFETR","launch_vehicle":null,"mission":null,"orbit_class":"UNKNOWN","rcs_meters":null,"size_class":null,"mass_kg":null,"dimensions":null,"purposes":["comms"],"wikipedia_slug":null,"has_3d_model":false,"image_url":null,"decayed_at":null,"tle_current":{"epoch":"2026-05-25T02:08:29.649120Z","epoch_age_seconds":81482,"freshness":"FRESH","line1":"1 67641U 26020AA  26145.08923205  .00019093  00000+0  70081-3 0  9991","line2":"2 67641  43.0014  68.6699 0000458 135.3009 224.7880 15.27615643 17795","mean_motion":15.27615643,"eccentricity":4.58e-5,"inclination_deg":43.0014,"raan_deg":68.6699,"arg_perigee_deg":135.3009,"mean_anomaly_deg":224.788,"bstar":0.00070081,"rev_number":1779,"period_min":94.264549240414,"perigee_km":482.62813271519,"apogee_km":483.2566075855,"semimajor_km":6861.0793701503,"source":"CELESTRAK","updated_at":"2026-05-25T13:38:21.654862Z"}}}